This is the latest recevied weather packets stored in our database for station/object LZ1BAB-WX. If no packets are shown the sender has not sent any weather packets the latest 1 day(s).
| Time | Temp. | Humidity | Pressure | Rain* | Wind** | Luminosity | Snow |
|---|---|---|---|---|---|---|---|
| 1778048226 | 15.56° C | 64% | 1016.6 hPa | 0 mm | - | 294 W/m² | - |
| 1778048106 | 15.56° C | 66% | 1016.6 hPa | 0 mm | - | 289 W/m² | - |
| 1778046785 | 14.44° C | 72% | 1016.8 hPa | 0 mm | - | 233 W/m² | - |
| 1778046185 | 13.89° C | 74% | 1016.7 hPa | 0 mm | - | 206 W/m² | - |
| 1778046065 | 13.89° C | 74% | 1017 hPa | 0 mm | - | 192 W/m² | - |
| 1778045826 | 13.33° C | 76% | 1016.7 hPa | 0 mm | - | 203 W/m² | - |
| 1778045706 | 12.78° C | 79% | 1016.8 hPa | 0 mm | - | 202 W/m² | - |
| 1778045586 | 12.22° C | 79% | 1016.8 hPa | 0 mm | - | 198 W/m² | - |
| 1778045346 | 12.22° C | 79% | 1016.7 hPa | 0 mm | - | 181 W/m² | - |
| 1778045226 | 12.22° C | 81% | 1017 hPa | 0 mm | - | 172 W/m² | - |
| 1778044985 | 11.67° C | 81% | 1016.7 hPa | 0 mm | - | 160 W/m² | - |
| 1778044745 | 11.11° C | 83% | 1017 hPa | 0 mm | - | 148 W/m² | - |
| 1778044625 | 11.11° C | 83% | 1016.8 hPa | 0 mm | - | 142 W/m² | - |
| 1778044385 | 10.56° C | 85% | 1016.7 hPa | 0 mm | - | 134 W/m² | - |
| 1778044266 | 10° C | 85% | 1016.8 hPa | 0 mm | - | 130 W/m² | - |
| 1778044145 | 10° C | 86% | 1016.7 hPa | 0 mm | - | 126 W/m² | - |
| 1778044025 | 9.44° C | 86% | 1017 hPa | 0 mm | - | 123 W/m² | - |
| 1778043906 | 9.44° C | 86% | 1017 hPa | 0 mm | - | 120 W/m² | - |
| 1778043786 | 9.44° C | 86% | 1016.7 hPa | 0 mm | - | 116 W/m² | - |
| 1778043666 | 8.89° C | 86% | 1016.7 hPa | 0 mm | - | 113 W/m² | - |
| 1778043546 | 8.89° C | 87% | 1017 hPa | 0 mm | - | 109 W/m² | - |
| 1778043307 | 8.33° C | 88% | 1017 hPa | 0 mm | - | 103 W/m² | - |
| 1778043185 | 8.33° C | 89% | 1016.8 hPa | 0 mm | - | 99 W/m² | - |
| 1778043066 | 8.33° C | 89% | 1016.6 hPa | 0 mm | - | 96 W/m² | - |
| 1778042946 | 7.78° C | 90% | 1016.7 hPa | 0 mm | - | 94 W/m² | - |
* Rain latest hour (hover to see other rain measurements)
** Current wind speed in m/s (hover to see current wind gust speed)